Flag for Germany Weather past 2 weeks in Laatzen, Lower Saxony, Germany

Now
55 °F

Light rain. Overcast.


Feels Like: 55 °F
Forecast: 49 / 61 °F
Wind: 3 mph from West

Location: Hannover

Current Time: Apr 25, 2015 at 5:27:18 PM

Latest Report: Apr 25, 2015 at 4:00 PM


Visibility: 4 mi

Pressure: 29.74 "Hg

Humidity: 87%

Dew point: 51 °F

Location of LaatzenLocation

Historic Weather in Laatzen — Graph

°F

Laatzen temperature yesterday

Maximum temperature yesterday: 66 °F (at 4:00 PM)
Minimum temperature yesterday: 37 °F (at 7:00 AM)
Average temperature yesterday: 52 °F

Past Weeks' High & Low Weather Summary

 TemperatureHumidityPressure
High72 °F (Apr 15, 4:00 PM)100% (Apr 23, 6:00 AM)30.43 "Hg (Apr 23, 6:00 AM)
Low34 °F (Apr 18, 7:00 AM)33% (Apr 20, 4:00 PM)29.74 "Hg (Apr 25, 2:00 PM)
Average50 °F66%30.16 "Hg
* Reported Apr 10 4:00 PM — Apr 25 4:00 PM, Laatzen, Weather by CustomWeather, © 2015

Note: Actual official high and low records may vary slightly from our data, if they occured in-between our weather recording intervals... More about our weather records

Advertising

Laatzen weather history for previous 24 hours

 ConditionsComfort  
Time TempWeatherWind HumidityBarometerVisibility
4:00 PM
Sat, Apr 25
55 °FLight rain. Overcast.3 mph87%29.74 "Hg4 mi
3:00 PM57 °FLight rain. Overcast.2 mph84%29.75 "Hg4 mi
2:00 PM59 °FLight rain. Overcast.1 mph72%29.74 "Hg6 mi
1:00 PM59 °FOvercast.1 mph71%29.75 "Hg6 mi
12:00 PM57 °FOvercast.1 mph76%29.77 "Hg6 mi
10:00 AM59 °FOvercast.2 mph63%29.76 "Hg9 mi
9:00 AM56 °FOvercast.2 mph78%29.76 "Hg7 mi
8:00 AM53 °FOvercast.2 mph91%29.76 "Hg7 mi
7:00 AM54 °FLight rain. Overcast.2 mph72%29.75 "Hg7 mi
6:00 AM54 °FOvercast.2 mph61%29.75 "Hg9 mi
3:00 AM52 °FPassing clouds.2 mph63%29.78 "Hg6 mi
1:00 AM53 °FPassing clouds.3 mph61%29.80 "Hg5 mi
12:00 AM54 °FPassing clouds.2 mph61%29.81 "Hg5 mi
10:00 PM
Fri, Apr 24
56 °FPassing clouds.1 mph56%29.82 "Hg7 mi
9:00 PM57 °FPassing clouds.1 mph54%29.83 "Hg7 mi
8:00 PM62 °FScattered clouds.2 mph46%29.82 "Hg8 mi
7:00 PM65 °FScattered clouds.3 mph45%29.83 "Hg8 mi
6:00 PM66 °FPartly sunny.5 mph41%29.83 "Hg8 mi
Weather by CustomWeather, © 2015

See weather overviewHow to use our weather pages